;kW;;;;kwh
01.01.2023 00:00;4124;;;Jan;3.144.231
01.01.2023 00:15;3668;;;Feb;3.053.532
01.01.2023 00:30;3300;;;Mrz;3.320.576
01.01.2023 00:45;3004;;;Apr;2.922.518
01.01.2023 01:00;2700;;;Mai;2.857.090
01.01.2023 01:15;2480;;;Jun;2.644.099
01.01.2023 01:30;2292;;;Jul;2.822.670
01.01.2023 01:45;2168;;;Aug;2.861.665
01.01.2023 02:00;2136;;;Sep;2.635.280
01.01.2023 02:15;2088;;;Okt;3.022.116
01.01.2023 02:30;2028;;;Nov;3.086.475
01.01.2023 02:45;2028;;;Dez;3.188.613
01.01.2023 03:00;2048;;;;
01.01.2023 03:15;2056;;;Summe;35.558.865
01.01.2023 03:30;2076;;;;
01.01.2023 03:45;2084;;;;
01.01.2023 04:00;2084;;;;
01.01.2023 04:15;2068;;;;
01.01.2023 04:30;2076;;;;
01.01.2023 04:45;2084;;;;
01.01.2023 05:00;2068;;;;
01.01.2023 05:15;2000;;;;
01.01.2023 05:30;1796;;;;
01.01.2023 05:45;1500;;;;
01.01.2023 06:00;720;;;;
01.01.2023 06:15;756;;;;
01.01.2023 06:30;792;;;;
01.01.2023 06:45;820;;;;
01.01.2023 07:00;864;;;;
01.01.2023 07:15;920;;;;
01.01.2023 07:30;992;;;;
01.01.2023 07:45;1100;;;;
01.01.2023 08:00;1248;;;;
01.01.2023 08:15;1404;;;;
01.01.2023 08:30;1620;;;;
01.01.2023 08:45;1892;;;;
01.01.2023 09:00;2200;;;;
01.01.2023 09:15;2492;;;;
01.01.2023 09:30;2768;;;;
01.01.2023 09:45;3028;;;;
01.01.2023 10:00;3308;;;;
01.01.2023 10:15;3544;;;;
01.01.2023 10:30;3776;;;;
01.01.2023 10:45;4008;;;;
01.01.2023 11:00;4244;;;;
01.01.2023 11:15;4496;;;;
01.01.2023 11:30;4680;;;;
01.01.2023 11:45;4760;;;;
01.01.2023 12:00;4804;;;;
01.01.2023 12:15;4748;;;;
01.01.2023 12:30;4632;;;;
01.01.2023 12:45;4408;;;;
01.01.2023 13:00;4132;;;;
01.01.2023 13:15;3800;;;;
01.01.2023 13:30;3476;;;;
01.01.2023 13:45;3180;;;;
01.01.2023 14:00;2924;;;;
01.01.2023 14:15;2724;;;;
01.01.2023 14:30;2544;;;;
01.01.2023 14:45;2388;;;;
01.01.2023 15:00;2268;;;;
01.01.2023 15:15;2168;;;;
01.01.2023 15:30;2096;;;;
01.01.2023 15:45;2048;;;;
01.01.2023 16:00;2012;;;;
01.01.2023 16:15;2024;;;;
01.01.2023 16:30;2120;;;;
01.01.2023 16:45;2248;;;;
01.01.2023 17:00;2444;;;;
01.01.2023 17:15;2688;;;;
01.01.2023 17:30;2956;;;;
01.01.2023 17:45;3224;;;;
01.01.2023 18:00;3468;;;;
01.01.2023 18:15;3656;;;;
01.01.2023 18:30;3848;;;;
01.01.2023 18:45;4012;;;;
01.01.2023 19:00;4188;;;;
01.01.2023 19:15;4320;;;;
01.01.2023 19:30;4388;;;;
01.01.2023 19:45;4332;;;;
01.01.2023 20:00;4104;;;;
01.01.2023 20:15;3796;;;;
01.01.2023 20:30;3472;;;;
01.01.2023 20:45;3260;;;;
01.01.2023 21:00;7016;;;;
01.01.2023 21:15;6808;;;;
01.01.2023 21:30;6980;;;;
01.01.2023 21:45;6932;;;;
01.01.2023 22:00;7740;;;;
01.01.2023 22:15;7232;;;;
01.01.2023 22:30;6512;;;;
01.01.2023 22:45;5772;;;;
01.01.2023 23:00;6008;;;;
01.01.2023 23:15;5308;;;;
01.01.2023 23:30;4664;;;;
01.01.2023 23:45;4580;;;;
02.01.2023 00:00;3404;;;;
02.01.2023 00:15;2940;;;;
02.01.2023 00:30;2544;;;;
02.01.2023 00:45;2248;;;;
02.01.2023 01:00;2024;;;;
02.01.2023 01:15;1848;;;;
02.01.2023 01:30;1712;;;;
02.01.2023 01:45;1616;;;;
02.01.2023 02:00;1556;;;;
02.01.2023 02:15;1544;;;;
02.01.2023 02:30;1536;;;;
02.01.2023 02:45;1528;;;;
02.01.2023 03:00;1536;;;;
02.01.2023 03:15;1556;;;;
02.01.2023 03:30;1588;;;;
02.01.2023 03:45;1612;;;;
02.01.2023 04:00;1644;;;;
02.01.2023 04:15;1688;;;;
02.01.2023 04:30;1732;;;;
02.01.2023 04:45;1784;;;;
02.01.2023 05:00;1840;;;;
02.01.2023 05:15;1904;;;;
02.01.2023 05:30;1944;;;;
02.01.2023 05:45;1940;;;;
02.01.2023 06:00;1892;;;;
02.01.2023 06:15;1556;;;;
02.01.2023 06:30;1620;;;;
02.01.2023 06:45;2000;;;;
02.01.2023 07:00;2432;;;;
02.01.2023 07:15;2960;;;;
02.01.2023 07:30;3476;;;;
02.01.2023 07:45;3980;;;;
02.01.2023 08:00;4460;;;;
02.01.2023 08:15;4864;;;;
02.01.2023 08:30;5140;;;;
02.01.2023 08:45;5348;;;;
02.01.2023 09:00;5480;;;;
02.01.2023 09:15;5464;;;;
02.01.2023 09:30;5444;;;;
02.01.2023 09:45;5456;;;;
02.01.2023 10:00;5460;;;;
02.01.2023 10:15;5444;;;;
02.01.2023 10:30;5408;;;;
02.01.2023 10:45;5404;;;;
02.01.2023 11:00;5440;;;;
02.01.2023 11:15;5464;;;;
02.01.2023 11:30;5484;;;;
02.01.2023 11:45;5508;;;;
02.01.2023 12:00;5524;;;;
02.01.2023 12:15;5468;;;;
02.01.2023 12:30;5408;;;;
02.01.2023 12:45;5396;;;;
02.01.2023 13:00;5360;;;;
02.01.2023 13:15;5232;;;;
02.01.2023 13:30;5044;;;;
02.01.2023 13:45;4816;;;;
02.01.2023 14:00;4612;;;;
02.01.2023 14:15;4496;;;;
02.01.2023 14:30;4436;;;;
02.01.2023 14:45;4396;;;;
02.01.2023 15:00;4364;;;;
02.01.2023 15:15;4324;;;;
02.01.2023 15:30;4296;;;;
02.01.2023 15:45;4232;;;;
02.01.2023 16:00;4156;;;;
02.01.2023 16:15;4076;;;;
02.01.2023 16:30;4024;;;;
02.01.2023 16:45;4072;;;;
02.01.2023 17:00;4156;;;;
02.01.2023 17:15;4272;;;;
02.01.2023 17:30;4424;;;;
02.01.2023 17:45;4592;;;;
02.01.2023 18:00;4776;;;;
02.01.2023 18:15;4916;;;;
02.01.2023 18:30;5060;;;;
02.01.2023 18:45;5204;;;;
02.01.2023 19:00;5296;;;;
02.01.2023 19:15;5320;;;;
02.01.2023 19:30;5264;;;;
02.01.2023 19:45;5168;;;;
02.01.2023 20:00;5000;;;;
02.01.2023 20:15;4668;;;;
02.01.2023 20:30;4252;;;;
02.01.2023 20:45;3888;;;;
02.01.2023 21:00;3616;;;;
02.01.2023 21:15;5588;;;;
02.01.2023 21:30;6420;;;;
02.01.2023 21:45;6340;;;;
02.01.2023 22:00;6256;;;;
02.01.2023 22:15;6552;;;;
02.01.2023 22:30;6400;;;;
02.01.2023 22:45;5804;;;;
02.01.2023 23:00;5172;;;;
02.01.2023 23:15;5040;;;;
02.01.2023 23:30;4676;;;;
02.01.2023 23:45;4100;;;;
03.01.2023 00:00;3592;;;;
03.01.2023 00:15;3008;;;;
03.01.2023 00:30;2568;;;;
03.01.2023 00:45;2272;;;;
03.01.2023 01:00;2036;;;;
03.01.2023 01:15;1852;;;;
03.01.2023 01:30;1716;;;;
03.01.2023 01:45;1624;;;;
03.01.2023 02:00;1560;;;;
03.01.2023 02:15;1544;;;;
03.01.2023 02:30;1540;;;;
03.01.2023 02:45;1520;;;;
03.01.2023 03:00;1528;;;;
03.01.2023 03:15;1556;;;;
03.01.2023 03:30;1568;;;;
03.01.2023 03:45;1596;;;;
03.01.2023 04:00;1632;;;;
03.01.2023 04:15;1676;;;;
03.01.2023 04:30;1720;;;;
03.01.2023 04:45;1784;;;;
03.01.2023 05:00;1840;;;;
03.01.2023 05:15;1916;;;;
03.01.2023 05:30;1956;;;;
03.01.2023 05:45;1968;;;;
03.01.2023 06:00;1948;;;;
03.01.2023 06:15;1672;;;;
03.01.2023 06:30;1792;;;;
03.01.2023 06:45;2208;;;;
03.01.2023 07:00;2672;;;;
03.01.2023 07:15;3228;;;;
03.01.2023 07:30;3780;;;;
03.01.2023 07:45;4320;;;;
03.01.2023 08:00;4820;;;;
03.01.2023 08:15;5248;;;;
03.01.2023 08:30;5524;;;;
03.01.2023 08:45;5728;;;;
03.01.2023 09:00;5864;;;;
03.01.2023 09:15;5816;;;;
03.01.2023 09:30;5760;;;;
03.01.2023 09:45;5796;;;;
03.01.2023 10:00;5800;;;;
03.01.2023 10:15;5788;;;;
03.01.2023 10:30;5760;;;;
03.01.2023 10:45;5788;;;;
03.01.2023 11:00;5812;;;;
03.01.2023 11:15;5832;;;;
03.01.2023 11:30;5832;;;;
03.01.2023 11:45;5828;;;;
03.01.2023 12:00;5816;;;;
03.01.2023 12:15;5720;;;;
03.01.2023 12:30;5672;;;;
03.01.2023 12:45;5696;;;;
03.01.2023 13:00;5644;;;;
03.01.2023 13:15;5492;;;;
03.01.2023 13:30;5260;;;;
03.01.2023 13:45;5024;;;;
03.01.2023 14:00;4764;;;;
03.01.2023 14:15;4560;;;;
03.01.2023 14:30;4484;;;;
03.01.2023 14:45;4468;;;;
03.01.2023 15:00;4472;;;;
03.01.2023 15:15;4484;;;;
03.01.2023 15:30;4456;;;;
03.01.2023 15:45;4384;;;;
03.01.2023 16:00;4316;;;;
03.01.2023 16:15;4252;;;;
03.01.2023 16:30;4228;;;;
03.01.2023 16:45;4268;;;;
03.01.2023 17:00;4376;;;;
03.01.2023 17:15;4496;;;;
03.01.2023 17:30;4656;;;;
03.01.2023 17:45;4848;;;;
03.01.2023 18:00;5024;;;;
03.01.2023 18:15;5156;;;;
03.01.2023 18:30;5292;;;;
03.01.2023 18:45;5432;;;;
03.01.2023 19:00;5528;;;;
03.01.2023 19:15;5540;;;;
03.01.2023 19:30;5480;;;;
03.01.2023 19:45;5388;;;;
03.01.2023 20:00;5204;;;;
03.01.2023 20:15;4868;;;;
03.01.2023 20:30;4416;;;;
03.01.2023 20:45;4020;;;;
03.01.2023 21:00;3740;;;;
03.01.2023 21:15;5572;;;;
03.01.2023 21:30;6348;;;;
03.01.2023 21:45;6264;;;;
03.01.2023 22:00;6164;;;;
03.01.2023 22:15;6400;;;;
03.01.2023 22:30;6220;;;;
03.01.2023 22:45;5640;;;;
03.01.2023 23:00;5028;;;;
03.01.2023 23:15;4876;;;;
03.01.2023 23:30;4496;;;;
03.01.2023 23:45;3920;;;;
04.01.2023 00:00;3492;;;;
04.01.2023 00:15;3116;;;;
04.01.2023 00:30;2800;;;;
04.01.2023 00:45;2540;;;;
04.01.2023 01:00;2308;;;;
04.01.2023 01:15;2144;;;;
04.01.2023 01:30;2024;;;;
04.01.2023 01:45;1948;;;;
04.01.2023 02:00;1944;;;;
04.01.2023 02:15;1948;;;;
04.01.2023 02:30;1920;;;;
04.01.2023 02:45;1904;;;;
04.01.2023 03:00;1900;;;;
04.01.2023 03:15;1904;;;;
04.01.2023 03:30;1912;;;;
04.01.2023 03:45;1932;;;;
04.01.2023 04:00;1952;;;;
04.01.2023 04:15;1968;;;;
04.01.2023 04:30;2008;;;;
04.01.2023 04:45;2028;;;;
04.01.2023 05:00;2068;;;;
04.01.2023 05:15;2092;;;;
04.01.2023 05:30;2056;;;;
04.01.2023 05:45;1948;;;;
04.01.2023 06:00;1440;;;;
04.01.2023 06:15;1424;;;;
04.01.2023 06:30;1780;;;;
04.01.2023 06:45;2164;;;;
04.01.2023 07:00;2616;;;;
04.01.2023 07:15;3072;;;;
04.01.2023 07:30;3532;;;;
04.01.2023 07:45;3968;;;;
04.01.2023 08:00;4364;;;;
04.01.2023 08:15;4632;;;;
04.01.2023 08:30;4764;;;;
04.01.2023 08:45;4848;;;;
04.01.2023 09:00;4884;;;;
04.01.2023 09:15;4884;;;;
04.01.2023 09:30;4868;;;;
04.01.2023 09:45;4844;;;;
04.01.2023 10:00;4804;;;;
04.01.2023 10:15;4772;;;;
04.01.2023 10:30;4768;;;;
04.01.2023 10:45;4792;;;;
04.01.2023 11:00;4816;;;;
04.01.2023 11:15;4844;;;;
04.01.2023 11:30;4844;;;;
04.01.2023 11:45;4848;;;;
04.01.2023 12:00;4860;;;;
04.01.2023 12:15;4852;;;;
04.01.2023 12:30;4812;;;;
04.01.2023 12:45;4772;;;;
04.01.2023 13:00;4664;;;;
04.01.2023 13:15;4500;;;;
04.01.2023 13:30;4284;;;;
04.01.2023 13:45;4064;;;;
04.01.2023 14:00;3932;;;;
04.01.2023 14:15;3880;;;;
04.01.2023 14:30;3860;;;;
04.01.2023 14:45;3852;;;;
04.01.2023 15:00;3840;;;;
04.01.2023 15:15;3820;;;;
04.01.2023 15:30;3784;;;;
04.01.2023 15:45;3756;;;;
04.01.2023 16:00;3752;;;;
04.01.2023 16:15;3792;;;;
04.01.2023 16:30;3844;;;;
04.01.2023 16:45;3920;;;;
04.01.2023 17:00;4016;;;;
04.01.2023 17:15;4160;;;;
04.01.2023 17:30;4316;;;;
04.01.2023 17:45;4488;;;;
04.01.2023 18:00;4652;;;;
04.01.2023 18:15;4796;;;;
04.01.2023 18:30;4928;;;;
04.01.2023 18:45;5024;;;;
04.01.2023 19:00;5028;;;;
04.01.2023 19:15;4968;;;;
04.01.2023 19:30;4880;;;;
04.01.2023 19:45;4704;;;;
04.01.2023 20:00;4412;;;;
04.01.2023 20:15;4004;;;;
04.01.2023 20:30;3628;;;;
04.01.2023 20:45;3352;;;;
04.01.2023 21:00;5700;;;;
04.01.2023 21:15;6716;;;;
04.01.2023 21:30;6676;;;;
04.01.2023 21:45;6656;;;;
04.01.2023 22:00;7088;;;;
04.01.2023 22:15;6996;;;;
04.01.2023 22:30;6384;;;;
04.01.2023 22:45;5736;;;;
04.01.2023 23:00;5752;;;;
04.01.2023 23:15;5440;;;;
04.01.2023 23:30;4816;;;;
04.01.2023 23:45;4260;;;;
05.01.2023 00:00;2912;;;;
05.01.2023 00:15;2128;;;;
05.01.2023 00:30;1864;;;;
05.01.2023 00:45;1656;;;;
05.01.2023 01:00;1504;;;;
05.01.2023 01:15;1384;;;;
05.01.2023 01:30;1300;;;;
05.01.2023 01:45;1248;;;;
05.01.2023 02:00;1240;;;;
05.01.2023 02:15;1232;;;;
05.01.2023 02:30;1228;;;;
05.01.2023 02:45;1240;;;;
05.01.2023 03:00;1264;;;;
05.01.2023 03:15;1288;;;;
05.01.2023 03:30;1316;;;;
05.01.2023 03:45;1360;;;;
05.01.2023 04:00;1420;;;;
05.01.2023 04:15;1468;;;;
05.01.2023 04:30;1524;;;;
05.01.2023 04:45;1580;;;;
05.01.2023 05:00;1660;;;;
05.01.2023 05:15;1716;;;;
05.01.2023 05:30;1748;;;;
05.01.2023 05:45;1760;;;;
05.01.2023 06:00;1588;;;;
05.01.2023 06:15;1740;;;;
05.01.2023 06:30;2156;;;;
05.01.2023 06:45;2632;;;;
05.01.2023 07:00;3176;;;;
05.01.2023 07:15;3700;;;;
05.01.2023 07:30;4228;;;;
05.01.2023 07:45;4736;;;;
05.01.2023 08:00;5160;;;;
05.01.2023 08:15;5408;;;;
05.01.2023 08:30;5556;;;;
05.01.2023 08:45;5656;;;;
05.01.2023 09:00;5608;;;;
05.01.2023 09:15;5536;;;;
05.01.2023 09:30;5512;;;;
05.01.2023 09:45;5496;;;;
05.01.2023 10:00;5436;;;;
05.01.2023 10:15;5376;;;;
05.01.2023 10:30;5352;;;;
05.01.2023 10:45;5352;;;;
05.01.2023 11:00;5352;;;;
05.01.2023 11:15;5348;;;;
05.01.2023 11:30;5364;;;;
05.01.2023 11:45;5376;;;;
05.01.2023 12:00;5304;;;;
05.01.2023 12:15;5276;;;;
05.01.2023 12:30;5292;;;;
05.01.2023 12:45;5276;;;;
05.01.2023 13:00;5184;;;;
05.01.2023 13:15;5008;;;;
05.01.2023 13:30;4816;;;;
05.01.2023 13:45;4576;;;;
05.01.2023 14:00;4416;;;;
05.01.2023 14:15;4376;;;;
05.01.2023 14:30;4364;;;;
05.01.2023 14:45;4360;;;;
05.01.2023 15:00;4328;;;;
05.01.2023 15:15;4308;;;;
05.01.2023 15:30;4268;;;;
05.01.2023 15:45;4220;;;;
05.01.2023 16:00;4164;;;;
05.01.2023 16:15;4164;;;;
05.01.2023 16:30;4220;;;;
05.01.2023 16:45;4308;;;;
05.01.2023 17:00;4424;;;;
05.01.2023 17:15;4580;;;;
05.01.2023 17:30;4760;;;;
05.01.2023 17:45;4924;;;;
05.01.2023 18:00;5068;;;;
05.01.2023 18:15;5220;;;;
05.01.2023 18:30;5364;;;;
05.01.2023 18:45;5460;;;;
05.01.2023 19:00;5460;;;;
05.01.2023 19:15;5392;;;;
05.01.2023 19:30;5288;;;;
05.01.2023 19:45;5096;;;;
05.01.2023 20:00;4756;;;;
05.01.2023 20:15;4332;;;;
05.01.2023 20:30;3956;;;;
05.01.2023 20:45;3676;;;;
05.01.2023 21:00;5140;;;;
05.01.2023 21:15;5720;;;;
05.01.2023 21:30;5608;;;;
05.01.2023 21:45;5460;;;;
05.01.2023 22:00;5604;;;;
05.01.2023 22:15;5428;;;;
05.01.2023 22:30;4920;;;;
05.01.2023 22:45;4384;;;;
05.01.2023 23:00;4180;;;;
05.01.2023 23:15;3820;;;;
05.01.2023 23:30;3324;;;;
05.01.2023 23:45;2884;;;;
06.01.2023 00:00;4124;;;;
06.01.2023 00:15;3668;;;;
06.01.2023 00:30;3300;;;;
06.01.2023 00:45;3004;;;;
06.01.2023 01:00;2700;;;;
06.01.2023 01:15;2480;;;;
06.01.2023 01:30;2292;;;;
06.01.2023 01:45;2168;;;;
06.01.2023 02:00;2136;;;;
06.01.2023 02:15;2088;;;;
06.01.2023 02:30;2028;;;;
06.01.2023 02:45;2028;;;;
06.01.2023 03:00;2048;;;;
06.01.2023 03:15;2056;;;;
06.01.2023 03:30;2076;;;;
06.01.2023 03:45;2084;;;;
06.01.2023 04:00;2084;;;;
06.01.2023 04:15;2068;;;;
06.01.2023 04:30;2076;;;;
06.01.2023 04:45;2084;;;;
06.01.2023 05:00;2068;;;;
06.01.2023 05:15;2000;;;;
06.01.2023 05:30;1796;;;;
06.01.2023 05:45;1500;;;;
06.01.2023 06:00;720;;;;
06.01.2023 06:15;756;;;;
06.01.2023 06:30;792;;;;
06.01.2023 06:45;820;;;;
06.01.2023 07:00;864;;;;
06.01.2023 07:15;920;;;;
06.01.2023 07:30;992;;;;
06.01.2023 07:45;1100;;;;
06.01.2023 08:00;1248;;;;
06.01.2023 08:15;1404;;;;
06.01.2023 08:30;1620;;;;
06.01.2023 08:45;1892;;;;
06.01.2023 09:00;2200;;;;
06.01.2023 09:15;2492;;;;
06.01.2023 09:30;2768;;;;
06.01.2023 09:45;3028;;;;
06.01.2023 10:00;3308;;;;
06.01.2023 10:15;3544;;;;
06.01.2023 10:30;3776;;;;
06.01.2023 10:45;4008;;;;
06.01.2023 11:00;4244;;;;
06.01.2023 11:15;4496;;;;
06.01.2023 11:30;4680;;;;
06.01.2023 11:45;4760;;;;
06.01.2023 12:00;4804;;;;
06.01.2023 12:15;4748;;;;
06.01.2023 12:30;4632;;;;
06.01.2023 12:45;4408;;;;
06.01.2023 13:00;4132;;;;
06.01.2023 13:15;3800;;;;
06.01.2023 13:30;3476;;;;
06.01.2023 13:45;3180;;;;
06.01.2023 14:00;2924;;;;
06.01.2023 14:15;2724;;;;
06.01.2023 14:30;2544;;;;
06.01.2023 14:45;2388;;;;
06.01.2023 15:00;2268;;;;
06.01.2023 15:15;2168;;;;
06.01.2023 15:30;2096;;;;
06.01.2023 15:45;2048;;;;
06.01.2023 16:00;2012;;;;
06.01.2023 16:15;2024;;;;
06.01.2023 16:30;2120;;;;
06.01.2023 16:45;2248;;;;
06.01.2023 17:00;2444;;;;
06.01.2023 17:15;2688;;;;
06.01.2023 17:30;2956;;;;
06.01.2023 17:45;3224;;;;
06.01.2023 18:00;3468;;;;
06.01.2023 18:15;3656;;;;
06.01.2023 18:30;3848;;;;
06.01.2023 18:45;4012;;;;
06.01.2023 19:00;4188;;;;
06.01.2023 19:15;4320;;;;
06.01.2023 19:30;4388;;;;
06.01.2023 19:45;4332;;;;
06.01.2023 20:00;4104;;;;
06.01.2023 20:15;3796;;;;
06.01.2023 20:30;3472;;;;
06.01.2023 20:45;3260;;;;
06.01.2023 21:00;7016;;;;
06.01.2023 21:15;6808;;;;
06.01.2023 21:30;6980;;;;
06.01.2023 21:45;6932;;;;
06.01.2023 22:00;7740;;;;
06.01.2023 22:15;7232;;;;
06.01.2023 22:30;6512;;;;
06.01.2023 22:45;5772;;;;
06.01.2023 23:00;6008;;;;
06.01.2023 23:15;5308;;;;
06.01.2023 23:30;4664;;;;
06.01.2023 23:45;4080;;;;
07.01.2023 00:00;3264;;;;
07.01.2023 00:15;2992;;;;
07.01.2023 00:30;2780;;;;
07.01.2023 00:45;2600;;;;
07.01.2023 01:00;2388;;;;
07.01.2023 01:15;2220;;;;
07.01.2023 01:30;2044;;;;
07.01.2023 01:45;1920;;;;
07.01.2023 02:00;1884;;;;
07.01.2023 02:15;1836;;;;
07.01.2023 02:30;1804;;;;
07.01.2023 02:45;1824;;;;
07.01.2023 03:00;1848;;;;
07.01.2023 03:15;1864;;;;
07.01.2023 03:30;1896;;;;
07.01.2023 03:45;1924;;;;
07.01.2023 04:00;1940;;;;
07.01.2023 04:15;1964;;;;
07.01.2023 04:30;1980;;;;
07.01.2023 04:45;2016;;;;
07.01.2023 05:00;2008;;;;
07.01.2023 05:15;1980;;;;
07.01.2023 05:30;1852;;;;
07.01.2023 05:45;1632;;;;
07.01.2023 06:00;972;;;;
07.01.2023 06:15;1088;;;;
07.01.2023 06:30;1224;;;;
07.01.2023 06:45;1408;;;;
07.01.2023 07:00;1624;;;;
07.01.2023 07:15;1852;;;;
07.01.2023 07:30;2124;;;;
07.01.2023 07:45;2420;;;;
07.01.2023 08:00;2764;;;;
07.01.2023 08:15;3036;;;;
07.01.2023 08:30;3264;;;;
07.01.2023 08:45;3520;;;;
07.01.2023 09:00;3744;;;;
07.01.2023 09:15;3896;;;;
07.01.2023 09:30;4008;;;;
07.01.2023 09:45;4120;;;;
07.01.2023 10:00;4212;;;;
07.01.2023 10:15;4264;;;;
07.01.2023 10:30;4312;;;;
07.01.2023 10:45;4368;;;;
07.01.2023 11:00;4404;;;;
07.01.2023 11:15;4460;;;;
07.01.2023 11:30;4508;;;;
07.01.2023 11:45;4548;;;;
07.01.2023 12:00;4604;;;;
07.01.2023 12:15;4664;;;;
07.01.2023 12:30;4712;;;;
07.01.2023 12:45;4720;;;;
07.01.2023 13:00;4636;;;;
07.01.2023 13:15;4516;;;;
07.01.2023 13:30;4340;;;;
07.01.2023 13:45;4160;;;;
07.01.2023 14:00;3968;;;;
07.01.2023 14:15;3768;;;;
07.01.2023 14:30;3600;;;;
07.01.2023 14:45;3464;;;;
07.01.2023 15:00;3368;;;;
07.01.2023 15:15;3300;;;;
07.01.2023 15:30;3248;;;;
07.01.2023 15:45;3232;;;;
07.01.2023 16:00;3260;;;;
07.01.2023 16:15;3352;;;;
07.01.2023 16:30;3500;;;;
07.01.2023 16:45;3720;;;;
07.01.2023 17:00;4028;;;;
07.01.2023 17:15;4440;;;;
07.01.2023 17:30;4848;;;;
07.01.2023 17:45;5208;;;;
07.01.2023 18:00;5412;;;;
07.01.2023 18:15;5508;;;;
07.01.2023 18:30;5564;;;;
07.01.2023 18:45;5560;;;;
07.01.2023 19:00;5540;;;;
07.01.2023 19:15;5512;;;;
07.01.2023 19:30;5388;;;;
07.01.2023 19:45;5124;;;;
07.01.2023 20:00;4644;;;;
07.01.2023 20:15;4088;;;;
07.01.2023 20:30;3580;;;;
07.01.2023 20:45;3240;;;;
07.01.2023 21:00;6380;;;;
07.01.2023 21:15;6060;;;;
07.01.2023 21:30;6156;;;;
07.01.2023 21:45;6100;;;;
07.01.2023 22:00;6820;;;;
07.01.2023 22:15;6492;;;;
07.01.2023 22:30;5968;;;;
07.01.2023 22:45;5448;;;;
07.01.2023 23:00;5696;;;;
07.01.2023 23:15;5124;;;;
07.01.2023 23:30;4528;;;;
07.01.2023 23:45;4016;;;;
08.01.2023 00:00;4044;;;;
08.01.2023 00:15;4124;;;;
08.01.2023 00:30;3668;;;;
08.01.2023 00:45;3300;;;;
08.01.2023 01:00;3004;;;;
08.01.2023 01:15;2700;;;;
08.01.2023 01:30;2480;;;;
08.01.2023 01:45;2292;;;;
08.01.2023 02:00;2168;;;;
08.01.2023 02:15;2136;;;;
08.01.2023 02:30;2088;;;;
08.01.2023 02:45;2028;;;;
08.01.2023 03:00;2028;;;;
08.01.2023 03:15;2048;;;;
08.01.2023 03:30;2056;;;;
08.01.2023 03:45;2076;;;;
08.01.2023 04:00;2084;;;;
08.01.2023 04:15;2084;;;;
08.01.2023 04:30;2068;;;;
08.01.2023 04:45;2076;;;;
08.01.2023 05:00;2084;;;;
08.01.2023 05:15;2068;;;;
08.01.2023 05:30;2000;;;;
08.01.2023 05:45;1796;;;;
08.01.2023 06:00;1500;;;;
08.01.2023 06:15;720;;;;
08.01.2023 06:30;756;;;;
08.01.2023 06:45;792;;;;
08.01.2023 07:00;820;;;;
08.01.2023 07:15;864;;;;
08.01.2023 07:30;920;;;;
08.01.2023 07:45;992;;;;
08.01.2023 08:00;1100;;;;
08.01.2023 08:15;1248;;;;
08.01.2023 08:30;1404;;;;
08.01.2023 08:45;1620;;;;
08.01.2023 09:00;1892;;;;
08.01.2023 09:15;2200;;;;
08.01.2023 09:30;2492;;;;
08.01.2023 09:45;2768;;;;
08.01.2023 10:00;3028;;;;
08.01.2023 10:15;3308;;;;
08.01.2023 10:30;3544;;;;
08.01.2023 10:45;3776;;;;
08.01.2023 11:00;4008;;;;
08.01.2023 11:15;4244;;;;
08.01.2023 11:30;4496;;;;
08.01.2023 11:45;4680;;;;
08.01.2023 12:00;4760;;;;
08.01.2023 12:15;4804;;;;
08.01.2023 12:30;4748;;;;
08.01.2023 12:45;4632;;;;
08.01.2023 13:00;4408;;;;
08.01.2023 13:15;4132;;;;
08.01.2023 13:30;3800;;;;
08.01.2023 13:45;3476;;;;
08.01.2023 14:00;3180;;;;
08.01.2023 14:15;2924;;;;
08.01.2023 14:30;2724;;;;
08.01.2023 14:45;2544;;;;
08.01.2023 15:00;2388;;;;
08.01.2023 15:15;2268;;;;
08.01.2023 15:30;2168;;;;
08.01.2023 15:45;2096;;;;
08.01.2023 16:00;2048;;;;
08.01.2023 16:15;2012;;;;
08.01.2023 16:30;2024;;;;
08.01.2023 16:45;2120;;;;
08.01.2023 17:00;2248;;;;
08.01.2023 17:15;2444;;;;
08.01.2023 17:30;2688;;;;
08.01.2023 17:45;2956;;;;
08.01.2023 18:00;3224;;;;
08.01.2023 18:15;3468;;;;
08.01.2023 18:30;3656;;;;
08.01.2023 18:45;3848;;;;
08.01.2023 19:00;4012;;;;
08.01.2023 19:15;4188;;;;
08.01.2023 19:30;4320;;;;
08.01.2023 19:45;4388;;;;
08.01.2023 20:00;4332;;;;
08.01.2023 20:15;4104;;;;
08.01.2023 20:30;3796;;;;
08.01.2023 20:45;3472;;;;
08.01.2023 21:00;3260;;;;
08.01.2023 21:15;7016;;;;
08.01.2023 21:30;6808;;;;
08.01.2023 21:45;6980;;;;
08.01.2023 22:00;6932;;;;
08.01.2023 22:15;7740;;;;
08.01.2023 22:30;7232;;;;
08.01.2023 22:45;6512;;;;
08.01.2023 23:00;5772;;;;
08.01.2023 23:15;6008;;;;
08.01.2023 23:30;5308;;;;
08.01.2023 23:45;4664;;;;
09.01.2023 00:00;3676;;;;
09.01.2023 00:15;3116;;;;
09.01.2023 00:30;2732;;;;
09.01.2023 00:45;2424;;;;
09.01.2023 01:00;2196;;;;
09.01.2023 01:15;2016;;;;
09.01.2023 01:30;1884;;;;
09.01.2023 01:45;1784;;;;
09.01.2023 02:00;1732;;;;
09.01.2023 02:15;1740;;;;
09.01.2023 02:30;1716;;;;
09.01.2023 02:45;1712;;;;
09.01.2023 03:00;1728;;;;
09.01.2023 03:15;1764;;;;
09.01.2023 03:30;1792;;;;
09.01.2023 03:45;1820;;;;
09.01.2023 04:00;1864;;;;
09.01.2023 04:15;1908;;;;
09.01.2023 04:30;1964;;;;
09.01.2023 04:45;2024;;;;
09.01.2023 05:00;2088;;;;
09.01.2023 05:15;2160;;;;
09.01.2023 05:30;2200;;;;
09.01.2023 05:45;2160;;;;
09.01.2023 06:00;2108;;;;
09.01.2023 06:15;1568;;;;
09.01.2023 06:30;1940;;;;
09.01.2023 06:45;2396;;;;
09.01.2023 07:00;2904;;;;
09.01.2023 07:15;3532;;;;
09.01.2023 07:30;4096;;;;
09.01.2023 07:45;4664;;;;
09.01.2023 08:00;5188;;;;
09.01.2023 08:15;5608;;;;
09.01.2023 08:30;5864;;;;
09.01.2023 08:45;6084;;;;
09.01.2023 09:00;6200;;;;
09.01.2023 09:15;6120;;;;
09.01.2023 09:30;6120;;;;
09.01.2023 09:45;6140;;;;
09.01.2023 10:00;6140;;;;
09.01.2023 10:15;6116;;;;
09.01.2023 10:30;6060;;;;
09.01.2023 10:45;6084;;;;
09.01.2023 11:00;6132;;;;
09.01.2023 11:15;6144;;;;
09.01.2023 11:30;6172;;;;
09.01.2023 11:45;6212;;;;
09.01.2023 12:00;6216;;;;
09.01.2023 12:15;6116;;;;
09.01.2023 12:30;6060;;;;
09.01.2023 12:45;6072;;;;
09.01.2023 13:00;6008;;;;
09.01.2023 13:15;5820;;;;
09.01.2023 13:30;5600;;;;
09.01.2023 13:45;5324;;;;
09.01.2023 14:00;5112;;;;
09.01.2023 14:15;5024;;;;
09.01.2023 14:30;4972;;;;
09.01.2023 14:45;4932;;;;
09.01.2023 15:00;4896;;;;
09.01.2023 15:15;4844;;;;
09.01.2023 15:30;4824;;;;
09.01.2023 15:45;4728;;;;
09.01.2023 16:00;4652;;;;
09.01.2023 16:15;4548;;;;
09.01.2023 16:30;4512;;;;
09.01.2023 16:45;4612;;;;
09.01.2023 17:00;4700;;;;
09.01.2023 17:15;4848;;;;
09.01.2023 17:30;5032;;;;
09.01.2023 17:45;5228;;;;
09.01.2023 18:00;5440;;;;
09.01.2023 18:15;5576;;;;
09.01.2023 18:30;5744;;;;
09.01.2023 18:45;5904;;;;
09.01.2023 19:00;5980;;;;
09.01.2023 19:15;5976;;;;
09.01.2023 19:30;5888;;;;
09.01.2023 19:45;5768;;;;
09.01.2023 20:00;5548;;;;
09.01.2023 20:15;5100;;;;
09.01.2023 20:30;4620;;;;
09.01.2023 20:45;4244;;;;
09.01.2023 21:00;3972;;;;
09.01.2023 21:15;7440;;;;
09.01.2023 21:30;7112;;;;
09.01.2023 21:45;7136;;;;
09.01.2023 22:00;6984;;;;
09.01.2023 22:15;7556;;;;
09.01.2023 22:30;7020;;;;
09.01.2023 22:45;6280;;;;
09.01.2023 23:00;5580;;;;
09.01.2023 23:15;5704;;;;
09.01.2023 23:30;5032;;;;
09.01.2023 23:45;4400;;;;
10.01.2023 00:00;3860;;;;
10.01.2023 00:15;3136;;;;
10.01.2023 00:30;2756;;;;
10.01.2023 00:45;2452;;;;
10.01.2023 01:00;2204;;;;
10.01.2023 01:15;2016;;;;
10.01.2023 01:30;1888;;;;
10.01.2023 01:45;1792;;;;
10.01.2023 02:00;1736;;;;
10.01.2023 02:15;1736;;;;
10.01.2023 02:30;1720;;;;
10.01.2023 02:45;1700;;;;
10.01.2023 03:00;1724;;;;
10.01.2023 03:15;1756;;;;
10.01.2023 03:30;1764;;;;
10.01.2023 03:45;1804;;;;
10.01.2023 04:00;1852;;;;
10.01.2023 04:15;1892;;;;
10.01.2023 04:30;1952;;;;